time ,SS(A),SS(B),CCN(A),CCN(B)
3:53:32,0.00,0.00,0.00,0.00
3:53:33,0.00,0.00,0.00,0.00
3:53:34,0.21,0.28,224.24,150.09
3:53:35,0.21,0.28,183.30,170.94
3:53:36,0.21,0.28,154.62,174.12
3:53:37,0.21,0.28,206.71,181.33
3:53:38,0.21,0.28,194.02,220.07
3:53:39,0.21,0.28,212.01,191.46
3:53:40,0.21,0.28,200.44,212.86
3:53:41,0.21,0.28,197.42,207.22
3:53:42,0.21,0.28,174.87,199.67
3:53:43,0.21,0.28,196.30,186.20
3:53:44,0.21,0.28,183.85,164.51
3:53:45,0.21,0.28,190.81,188.39
3:53:46,0.21,0.28,185.56,211.25
3:53:47,0.21,0.28,206.06,175.90
3:53:48,0.21,0.28,153.40,146.10
3:53:49,0.21,0.28,123.87,141.78
3:53:50,0.21,0.28,197.75,178.14
3:53:51,0.21,0.28,199.23,154.51
3:53:52,0.21,0.28,160.08,154.91
3:53:53,0.21,0.28,168.47,183.69
3:53:54,0.21,0.28,172.27,157.64
3:53:55,0.21,0.28,159.94,169.26
3:53:56,0.21,0.28,156.66,132.42
3:53:57,0.21,0.28,199.20,187.48
3:53:58,0.21,0.28,188.37,155.86
3:53:59,0.21,0.28,161.19,194.98
3:54:00,0.21,0.28,174.78,161.18
3:54:01,0.21,0.28,184.52,202.26
3:54:02,0.21,0.28,245.36,183.61
3:54:03,0.21,0.28,179.53,131.12
3:54:04,0.21,0.28,230.52,161.54
3:54:05,0.21,0.28,169.75,213.12
3:54:06,0.21,0.28,165.03,176.77
3:54:07,0.21,0.28,199.45,176.27
3:54:08,0.21,0.28,183.62,164.18
3:54:09,0.21,0.28,214.36,190.13
3:54:10,0.21,0.28,209.63,191.23
3:54:11,0.21,0.28,201.69,189.41
3:54:12,0.21,0.28,158.67,187.82
3:54:13,0.21,0.28,190.98,165.61
3:54:14,0.21,0.28,175.74,153.11
3:54:15,0.21,0.28,198.75,180.10
3:54:16,0.21,0.28,192.88,183.50
3:54:17,0.21,0.28,191.75,179.38
3:54:18,0.21,0.28,216.04,199.65
3:54:19,0.21,0.28,181.53,180.85
3:54:20,0.21,0.28,207.47,208.38
3:54:21,0.21,0.28,211.01,197.33
3:54:22,0.21,0.28,216.10,188.80
3:54:23,0.21,0.28,188.50,183.65
3:54:24,0.21,0.28,153.86,225.72
3:54:25,0.21,0.28,150.73,170.22
3:54:26,0.21,0.28,178.87,187.61
3:54:27,0.21,0.28,233.54,184.92
3:54:28,0.21,0.28,168.15,192.14
3:54:29,0.21,0.28,167.06,143.77
3:54:30,0.21,0.28,228.99,193.51
3:54:31,0.21,0.28,175.23,176.02
3:54:32,0.21,0.28,205.88,232.07
3:54:33,0.21,0.28,194.57,149.98
3:54:34,0.21,0.28,223.08,167.52
3:54:35,0.21,0.28,215.22,232.35
3:54:36,0.21,0.28,226.92,175.82
3:54:37,0.21,0.28,163.64,166.90
3:54:38,0.21,0.28,215.58,168.38
3:54:39,0.21,0.28,162.04,176.64
3:54:40,0.21,0.28,168.38,180.15
3:54:41,0.21,0.28,176.50,184.60
3:54:42,0.21,0.28,204.63,194.16
3:54:43,0.21,0.28,165.82,191.81
3:54:44,0.21,0.28,168.89,187.67
3:54:45,0.21,0.28,148.87,176.63
3:54:46,0.21,0.28,158.22,216.01
3:54:47,0.21,0.28,198.70,195.74
3:54:48,0.21,0.28,229.33,165.70
3:54:49,0.21,0.28,234.07,142.43
3:54:50,0.21,0.28,150.59,182.09
3:54:51,0.21,0.28,173.97,216.14
3:54:52,0.21,0.28,159.85,173.85
3:54:53,0.21,0.28,200.10,170.14
3:54:54,0.21,0.28,203.37,179.47
3:54:55,0.21,0.28,170.80,190.72
3:54:56,0.21,0.28,217.10,164.50
3:54:57,0.21,0.28,187.47,145.83
3:54:58,0.21,0.28,234.24,130.48
3:54:59,0.21,0.28,162.44,176.33
3:55:00,0.21,0.28,183.75,165.45
3:55:01,0.21,0.28,194.15,227.38
3:55:02,0.21,0.28,175.97,190.86
3:55:03,0.21,0.28,175.32,167.45
3:55:04,0.21,0.28,183.48,199.57
3:55:05,0.21,0.28,236.70,207.75
3:55:06,0.21,0.28,214.28,181.15
3:55:07,0.21,0.28,187.55,193.17
3:55:08,0.21,0.28,158.68,191.35
3:55:09,0.21,0.28,174.10,151.34
3:55:10,0.21,0.28,160.70,190.72
3:55:11,0.21,0.28,165.16,197.75
3:55:12,0.21,0.28,165.47,140.66
3:55:13,0.21,0.28,212.39,170.05
3:55:14,0.21,0.28,161.07,164.99
3:55:15,0.21,0.28,212.79,128.97
3:55:16,0.21,0.28,184.41,167.72
3:55:17,0.21,0.28,244.79,198.67
3:55:18,0.21,0.28,195.06,214.81
3:55:19,0.21,0.28,198.16,211.16
3:55:20,0.21,0.28,195.20,149.56
3:55:21,0.21,0.28,166.69,232.03
3:55:22,0.21,0.28,242.35,217.79
3:55:23,0.21,0.28,173.66,151.54
3:55:24,0.21,0.28,217.02,205.92
3:55:25,0.21,0.28,175.10,138.82
3:55:26,0.21,0.28,202.50,184.64
3:55:27,0.21,0.28,208.65,137.96
3:55:28,0.21,0.28,187.10,173.69
3:55:29,0.21,0.28,191.55,181.26
3:55:30,0.21,0.28,158.67,179.04
3:55:31,0.21,0.28,178.69,214.96
3:55:32,0.21,0.28,154.17,185.20
3:55:33,0.21,0.28,184.69,169.77
3:55:34,0.21,0.28,194.42,151.79
3:55:35,0.21,0.28,185.94,151.71
3:55:36,0.21,0.28,149.61,166.22
3:55:37,0.21,0.28,195.65,158.72
3:55:38,0.21,0.28,219.89,167.39
3:55:39,0.21,0.28,183.16,176.23
3:55:40,0.21,0.28,126.70,156.35
3:55:41,0.21,0.28,166.75,177.59
3:55:42,0.21,0.28,207.88,220.91
3:55:43,0.21,0.28,177.23,191.93
3:55:44,0.21,0.28,161.53,194.70
3:55:45,0.21,0.28,154.11,154.21
3:55:46,0.21,0.28,187.29,190.40
3:55:47,0.21,0.28,165.69,227.72
3:55:48,0.21,0.28,214.48,218.76
3:55:49,0.21,0.28,220.67,181.51
3:55:50,0.21,0.28,177.50,144.72
3:55:51,0.21,0.28,170.43,169.28
3:55:52,0.21,0.28,210.64,175.42
3:55:53,0.21,0.28,144.79,214.13
3:55:54,0.21,0.28,184.71,209.79
3:55:55,0.21,0.28,176.34,212.50
3:55:56,0.21,0.28,189.16,146.94
3:55:57,0.21,0.28,176.68,223.72
3:55:58,0.21,0.28,172.25,186.34
3:55:59,0.21,0.28,230.03,162.16
3:56:00,0.21,0.28,193.85,188.14
3:56:01,0.21,0.28,183.59,208.25
3:56:02,0.21,0.28,242.39,186.17
3:56:03,0.21,0.28,199.94,179.18
3:56:04,0.21,0.28,235.75,190.76
3:56:05,0.21,0.28,191.38,182.65
3:56:06,0.21,0.28,208.45,214.50
3:56:07,0.21,0.28,188.55,165.01
3:56:08,0.21,0.28,144.48,184.21
3:56:09,0.21,0.28,200.86,179.99
3:56:10,0.21,0.28,158.42,142.29
3:56:11,0.21,0.28,154.49,195.07
3:56:12,0.21,0.28,227.54,182.22
3:56:13,0.21,0.28,181.08,199.67
3:56:14,0.21,0.28,172.21,147.65
3:56:15,0.21,0.28,178.18,194.40
3:56:16,0.21,0.28,191.76,187.87
3:56:17,0.21,0.28,200.32,192.08
3:56:18,0.21,0.28,178.38,168.48
3:56:19,0.21,0.28,235.12,157.50
3:56:20,0.21,0.28,166.93,203.25
3:56:21,0.21,0.28,196.54,170.75
3:56:22,0.21,0.28,143.21,214.59
3:56:23,0.21,0.28,193.32,167.78
3:56:24,0.21,0.28,193.26,165.87
3:56:25,0.21,0.28,236.49,142.20
3:56:26,0.21,0.28,203.50,138.03
3:56:27,0.21,0.28,203.26,144.02
3:56:28,0.21,0.28,203.64,148.37
3:56:29,0.21,0.28,174.66,213.07
3:56:30,0.21,0.28,206.31,218.25
3:56:31,0.21,0.28,174.65,169.68
3:56:32,0.21,0.28,195.83,202.23
3:56:33,0.21,0.28,140.00,187.03
3:56:34,0.21,0.28,181.15,179.98
3:56:35,0.21,0.28,192.68,163.08
3:56:36,0.21,0.28,224.86,170.52
3:56:37,0.21,0.28,201.76,222.60
3:56:38,0.21,0.28,134.57,164.28
3:56:39,0.21,0.28,164.06,179.79
3:56:40,0.21,0.28,153.64,151.90
3:56:41,0.21,0.28,239.84,191.54
3:56:42,0.21,0.28,197.73,186.38
3:56:43,0.21,0.28,201.71,194.68
3:56:44,0.21,0.28,183.31,163.07
3:56:45,0.21,0.28,178.43,179.73
3:56:46,0.21,0.28,188.17,160.88
3:56:47,0.21,0.28,193.92,201.79
3:56:48,0.21,0.28,152.87,208.59
3:56:49,0.21,0.28,181.92,183.56
3:56:50,0.21,0.28,204.43,150.50
3:56:51,0.21,0.28,189.51,198.86
3:56:52,0.21,0.28,164.62,189.24
3:56:53,0.21,0.28,183.39,179.61
3:56:54,0.21,0.28,160.25,230.43
3:56:55,0.21,0.28,216.96,196.18
3:56:56,0.21,0.28,220.45,196.45
3:56:57,0.21,0.28,209.92,176.94
3:56:58,0.21,0.28,191.52,227.54
3:56:59,0.21,0.28,206.33,211.91
3:57:00,0.21,0.28,192.51,156.57
3:57:01,0.21,0.28,208.58,160.96
3:57:02,0.21,0.28,194.65,213.62
3:57:03,0.21,0.28,190.05,165.79
3:57:04,0.21,0.28,191.41,169.86
3:57:05,0.21,0.28,173.89,160.91
3:57:06,0.21,0.28,180.90,172.06
3:57:07,0.21,0.28,170.84,173.75
3:57:08,0.21,0.28,250.49,218.46
3:57:09,0.21,0.28,234.21,188.07
3:57:10,0.21,0.28,152.84,178.90
3:57:11,0.21,0.28,167.12,170.44
3:57:12,0.21,0.28,189.25,173.99
3:57:13,0.21,0.28,206.92,202.86
3:57:14,0.21,0.28,189.16,228.75
3:57:15,0.21,0.28,159.27,156.55
3:57:16,0.21,0.28,150.31,196.40
3:57:17,0.21,0.28,183.30,166.29
3:57:18,0.21,0.28,188.06,176.62
3:57:19,0.21,0.28,149.83,181.01
3:57:20,0.21,0.28,185.13,161.65
3:57:21,0.21,0.28,166.47,209.03
3:57:22,0.21,0.28,177.05,208.93
3:57:23,0.21,0.28,168.65,203.08
3:57:24,0.21,0.28,188.22,166.82
3:57:25,0.21,0.28,219.59,169.76
3:57:26,0.21,0.28,169.18,205.68
3:57:27,0.21,0.28,216.99,181.68
3:57:28,0.21,0.28,165.32,209.58
3:57:29,0.21,0.28,161.94,162.38
3:57:30,0.21,0.28,189.90,198.73
3:57:31,0.21,0.28,221.83,151.85
3:57:32,0.21,0.28,154.37,201.73
3:57:33,0.21,0.28,190.95,204.38
3:57:34,0.21,0.28,157.37,182.23
3:57:35,0.21,0.28,185.76,177.40
3:57:36,0.21,0.28,197.59,199.35
3:57:37,0.21,0.28,178.96,177.65
3:57:38,0.21,0.28,191.47,199.32
3:57:39,0.21,0.28,180.72,170.16
3:57:40,0.21,0.28,186.31,176.43
3:57:41,0.21,0.28,179.01,182.65
3:57:42,0.21,0.28,205.52,188.32
3:57:43,0.21,0.28,171.62,186.05
3:57:44,0.21,0.28,196.26,187.48
3:57:45,0.21,0.28,199.68,179.84
3:57:46,0.21,0.28,201.74,179.12
3:57:47,0.21,0.28,130.61,155.24
3:57:48,0.21,0.28,200.74,216.92
3:57:49,0.21,0.28,175.37,224.37
3:57:50,0.21,0.28,220.93,174.89
3:57:51,0.21,0.28,208.06,177.64
3:57:52,0.21,0.28,179.15,178.20
3:57:53,0.21,0.28,180.46,162.14
3:57:54,0.21,0.28,174.43,155.60
3:57:55,0.21,0.28,212.70,190.47
3:57:56,0.21,0.28,186.05,153.47
3:57:57,0.21,0.28,202.14,174.92
3:57:58,0.21,0.28,184.28,158.30
3:57:59,0.21,0.28,186.62,197.83
3:58:00,0.21,0.28,182.46,206.38
3:58:01,0.21,0.28,206.77,162.48
3:58:02,0.21,0.28,180.56,195.66
3:58:03,0.21,0.28,179.46,163.91
3:58:04,0.21,0.28,153.10,155.94
3:58:05,0.21,0.28,161.70,166.57
3:58:06,0.21,0.28,248.04,195.95
3:58:07,0.21,0.28,192.23,215.20
3:58:08,0.21,0.28,222.08,207.85
3:58:09,0.21,0.28,205.83,158.09
3:58:10,0.21,0.28,188.12,216.91
3:58:11,0.21,0.28,212.50,157.36
3:58:12,0.21,0.28,179.85,169.95
3:58:13,0.21,0.28,180.35,207.46
3:58:14,0.21,0.28,198.61,221.77
3:58:15,0.21,0.28,203.99,182.08
3:58:16,0.21,0.28,140.37,170.91
3:58:17,0.21,0.28,182.65,223.22
3:58:18,0.21,0.28,192.50,146.94
3:58:19,0.21,0.28,208.34,159.54
3:58:20,0.21,0.28,157.31,176.74
3:58:21,0.21,0.28,199.05,158.26
3:58:22,0.21,0.28,213.57,192.22
3:58:23,0.21,0.28,167.29,164.43
3:58:24,0.21,0.28,236.72,182.91
3:58:25,0.21,0.28,185.92,170.46
3:58:26,0.21,0.28,189.01,209.80
3:58:27,0.21,0.28,170.88,174.67
3:58:28,0.21,0.28,155.30,161.94
3:58:29,0.21,0.28,189.76,202.18
3:58:30,0.21,0.28,161.97,181.39
3:58:31,0.21,0.28,182.08,204.14
3:58:32,0.21,0.28,188.50,187.05
3:58:33,0.21,0.28,217.50,196.58
3:58:34,0.21,0.28,194.21,166.02
3:58:35,0.21,0.28,152.21,204.37
3:58:36,0.21,0.28,176.55,183.55
3:58:37,0.21,0.28,204.93,152.58
3:58:38,0.21,0.28,170.34,155.42
3:58:39,0.21,0.28,187.78,179.51
3:58:40,0.21,0.28,160.64,185.61
3:58:41,0.21,0.28,191.65,221.84
3:58:42,0.21,0.28,196.88,213.54
3:58:43,0.21,0.28,160.47,161.19
3:58:44,0.21,0.28,183.93,211.56
3:58:45,0.21,0.28,180.04,178.83
3:58:46,0.21,0.28,167.06,203.69
3:58:47,0.21,0.28,137.06,221.15
3:58:48,0.21,0.28,204.70,194.35
3:58:49,0.21,0.28,171.83,196.20
3:58:50,0.21,0.28,191.20,189.76
3:58:51,0.21,0.00,166.23,0.00
3:58:52,0.21,0.00,183.92,0.00
3:58:53,0.21,0.00,179.40,0.00
3:58:54,0.21,0.00,209.12,0.00
3:58:55,0.21,0.00,165.57,0.00
3:58:56,0.21,0.00,209.60,0.00
3:58:57,0.21,0.00,171.58,0.00
3:58:58,0.21,0.00,192.97,0.00
3:58:59,0.21,0.00,168.11,0.00
3:59:00,0.21,0.00,165.06,0.00
3:59:01,0.21,0.00,212.45,0.00
3:59:02,0.21,0.00,199.32,0.00
3:59:03,0.21,0.00,186.72,0.00
3:59:04,0.21,0.00,159.77,0.00
3:59:05,0.21,0.00,188.22,0.00
3:59:06,0.21,0.00,199.15,0.00
3:59:07,0.21,0.00,185.34,0.00
3:59:08,0.21,0.00,194.91,0.00
3:59:09,0.21,0.00,193.63,0.00
3:59:10,0.21,0.00,188.29,0.00
3:59:11,0.21,0.00,160.24,0.00
3:59:12,0.21,0.00,163.52,0.00
3:59:13,0.21,0.00,199.82,0.00
3:59:14,0.21,0.00,182.44,0.00
3:59:15,0.21,0.00,229.47,0.00
3:59:16,0.21,0.00,187.44,0.00
3:59:17,0.21,0.00,158.45,0.00
3:59:18,0.21,0.00,210.12,0.00
3:59:19,0.21,0.00,190.08,0.00
3:59:20,0.21,0.00,191.22,0.00
3:59:21,0.21,0.00,187.50,0.00
3:59:22,0.21,0.00,197.81,0.00
3:59:23,0.21,0.00,150.72,0.00
3:59:24,0.21,0.00,197.64,0.00
3:59:25,0.21,0.00,153.47,0.00
3:59:26,0.21,0.00,217.32,0.00
3:59:27,0.21,0.00,169.72,0.00
3:59:28,0.21,0.00,169.21,0.00
3:59:29,0.21,0.00,216.02,0.00
3:59:30,0.21,0.00,148.37,0.00
3:59:31,0.21,0.00,193.18,0.00
3:59:32,0.21,0.00,188.76,0.00
3:59:33,0.21,0.00,164.65,0.00
3:59:34,0.21,0.00,240.19,0.00
3:59:35,0.21,0.21,189.64,156.45
3:59:36,0.21,0.00,187.05,0.00
3:59:37,0.21,0.00,166.40,0.00
3:59:38,0.21,0.21,168.83,198.00
3:59:39,0.21,0.20,191.37,171.58
3:59:40,0.21,0.20,178.93,140.19
3:59:41,0.21,0.20,160.30,178.08
3:59:42,0.21,0.20,194.51,139.97
3:59:43,0.21,0.20,209.94,189.95
3:59:44,0.21,0.20,169.99,165.45
3:59:45,0.21,0.20,201.46,184.88
3:59:46,0.21,0.20,163.68,189.40
3:59:47,0.21,0.19,139.93,191.43
3:59:48,0.21,0.19,209.83,198.02
3:59:49,0.21,0.19,178.29,130.90
3:59:50,0.21,0.19,142.13,161.40
3:59:51,0.21,0.19,184.60,184.05
3:59:52,0.21,0.19,184.80,199.88
3:59:53,0.21,0.19,201.30,167.60
3:59:54,0.21,0.19,159.19,135.47
3:59:55,0.21,0.19,228.54,190.67
3:59:56,0.21,0.19,180.33,129.05
3:59:57,0.21,0.19,186.76,145.32
3:59:58,0.21,0.19,211.87,180.56
3:59:59,0.21,0.19,218.50,155.16
4:00:00,0.21,0.19,166.61,168.42
4:00:01,0.21,0.19,214.59,181.51
4:00:02,0.21,0.19,208.66,201.17
4:00:03,0.21,0.19,187.58,187.04
4:00:04,0.21,0.19,175.23,188.14
4:00:05,0.21,0.19,217.91,177.05
4:00:06,0.21,0.19,167.92,161.67
4:00:07,0.21,0.19,150.69,151.05
4:00:08,0.21,0.19,181.97,164.53
4:00:09,0.21,0.19,161.74,181.62
4:00:10,0.21,0.19,191.42,163.27
4:00:11,0.21,0.19,176.16,202.69
4:00:12,0.21,0.19,145.31,143.45
4:00:13,0.21,0.19,184.84,172.29
4:00:14,0.21,0.19,167.44,158.43
4:00:15,0.21,0.19,162.19,193.73
4:00:16,0.21,0.19,229.03,205.64
4:00:17,0.21,0.19,209.91,134.59
4:00:18,0.21,0.19,182.34,169.27
4:00:19,0.21,0.19,200.49,189.86
4:00:20,0.21,0.19,235.33,205.94
4:00:21,0.21,0.19,174.14,178.57
4:00:22,0.21,0.19,169.56,159.56
4:00:23,0.21,0.19,217.72,173.10
4:00:24,0.21,0.19,158.33,152.81
4:00:25,0.21,0.19,203.23,172.81
4:00:26,0.21,0.19,168.24,185.65
4:00:27,0.21,0.19,217.20,179.29
4:00:28,0.21,0.19,208.95,161.38
4:00:29,0.21,0.19,206.58,178.29
4:00:30,0.21,0.19,168.27,179.94
4:00:31,0.21,0.19,202.81,225.63
4:00:32,0.21,0.19,175.72,217.15
4:00:33,0.21,0.19,225.80,227.28
4:00:34,0.21,0.19,163.96,192.98
4:00:35,0.21,0.19,192.80,156.95
4:00:36,0.21,0.19,185.00,183.98
4:00:37,0.21,0.19,172.03,177.48
4:00:38,0.21,0.19,196.07,169.63
4:00:39,0.21,0.19,155.37,118.15
4:00:40,0.21,0.19,192.36,180.62
4:00:41,0.21,0.19,177.50,189.74
4:00:42,0.21,0.19,183.89,193.62
4:00:43,0.21,0.19,175.99,163.75
4:00:44,0.21,0.20,171.33,188.20
4:00:45,0.21,0.19,209.33,213.66
4:00:46,0.21,0.19,168.09,187.30
4:00:47,0.21,0.19,187.96,162.61
4:00:48,0.21,0.19,169.79,144.91
4:00:49,0.21,0.19,219.49,156.57
4:00:50,0.21,0.19,142.72,141.22
4:00:51,0.21,0.20,176.02,172.03
4:00:52,0.21,0.19,154.28,179.99
4:00:53,0.21,0.20,212.74,170.72
4:00:54,0.21,0.19,184.68,153.50
4:00:55,0.21,0.20,181.75,159.08
4:00:56,0.21,0.20,170.09,187.13
4:00:57,0.21,0.19,146.60,184.18
4:00:58,0.21,0.19,189.99,175.59
4:00:59,0.21,0.20,173.94,157.10
4:01:00,0.21,0.20,195.00,175.42
4:01:01,0.21,0.20,168.64,155.25
4:01:02,0.21,0.20,166.92,143.46
4:01:03,0.21,0.19,211.12,185.08
4:01:04,0.21,0.19,153.20,174.16
4:01:05,0.21,0.20,187.89,153.38
4:01:06,0.21,0.20,149.63,122.69
4:01:07,0.21,0.19,195.99,175.06
4:01:08,0.21,0.20,180.24,160.97
4:01:09,0.21,0.19,151.26,173.66
4:01:10,0.21,0.20,190.44,194.16
4:01:11,0.21,0.20,180.91,172.01
4:01:12,0.21,0.20,158.48,197.18
4:01:13,0.21,0.20,189.89,160.44
4:01:14,0.21,0.20,211.29,167.13
4:01:15,0.21,0.20,167.91,152.75
4:01:16,0.21,0.20,209.74,186.92
4:01:17,0.21,0.20,189.90,140.48
4:01:18,0.21,0.20,143.95,148.15
4:01:19,0.21,0.20,204.20,147.21
4:01:20,0.21,0.20,143.53,159.56
4:01:21,0.21,0.20,175.92,202.00
4:01:22,0.21,0.20,197.07,164.57
4:01:23,0.21,0.20,168.29,164.37
4:01:24,0.21,0.20,155.12,157.02
4:01:25,0.21,0.20,215.89,204.60
4:01:26,0.21,0.20,203.04,156.94
4:01:27,0.21,0.20,212.84,210.79
4:01:28,0.21,0.20,162.74,205.36
4:01:29,0.21,0.20,211.90,129.10
4:01:30,0.21,0.20,166.45,127.84
4:01:31,0.21,0.20,187.98,167.86
4:01:32,0.21,0.20,192.75,191.93
4:01:33,0.21,0.20,183.16,181.36
4:01:34,0.21,0.20,210.99,160.99
4:01:35,0.21,0.20,210.84,179.12
4:01:36,0.21,0.20,202.91,256.38
4:01:37,0.21,0.20,216.88,172.67
4:01:38,0.21,0.20,178.65,199.08
4:01:39,0.21,0.20,189.21,163.44
4:01:40,0.21,0.20,228.95,172.24
4:01:41,0.21,0.20,182.51,164.91
4:01:42,0.21,0.20,169.16,208.90
4:01:43,0.00,0.20,0.00,163.85
4:01:44,0.21,0.20,242.76,185.43
4:01:45,0.21,0.20,213.40,145.71
4:01:46,0.21,0.20,171.33,143.35
4:01:47,0.21,0.20,157.77,192.17
4:01:48,0.21,0.20,171.18,175.30
4:01:49,0.21,0.20,211.89,178.66
4:01:50,0.21,0.20,167.22,170.43
4:01:51,0.21,0.20,223.18,158.83
4:01:52,0.21,0.20,178.47,211.66
4:01:53,0.21,0.20,197.85,176.73
4:01:54,0.21,0.20,207.27,183.45
4:01:55,0.21,0.20,215.96,158.65
4:01:56,0.21,0.20,190.10,177.75
4:01:57,0.21,0.20,252.14,143.94
4:01:58,0.21,0.20,186.25,179.69
4:01:59,0.21,0.20,169.75,145.47
4:02:00,0.21,0.20,189.62,146.15
4:02:01,0.21,0.20,157.59,141.73
4:02:02,0.21,0.20,205.04,204.68
4:02:03,0.21,0.20,197.28,171.12
4:02:04,0.21,0.20,212.95,162.25
4:02:05,0.21,0.20,173.65,194.39
4:02:06,0.21,0.20,179.48,201.85
4:02:07,0.21,0.20,242.87,176.09
4:02:08,0.21,0.20,204.39,135.89
4:02:09,0.21,0.20,177.52,142.73
4:02:10,0.21,0.20,162.45,167.08
4:02:11,0.21,0.20,217.79,175.92
4:02:12,0.21,0.20,189.29,148.16
4:02:13,0.21,0.20,192.60,175.00
4:02:14,0.21,0.20,166.29,139.57
4:02:15,0.21,0.20,178.59,149.91
4:02:16,0.21,0.20,184.85,158.67
4:02:17,0.21,0.20,167.43,161.06
4:02:18,0.21,0.20,198.31,141.76
4:02:19,0.21,0.20,218.55,193.63
4:02:20,0.21,0.20,198.50,186.02
4:02:21,0.21,0.20,177.30,172.50
4:02:22,0.21,0.20,178.63,191.86
4:02:23,0.21,0.20,213.03,187.04
4:02:24,0.21,0.20,181.69,150.29
4:02:25,0.21,0.20,183.08,177.17
4:02:26,0.21,0.20,171.01,189.99
4:02:27,0.21,0.20,195.77,153.61
4:02:28,0.21,0.20,186.24,155.79
4:02:29,0.21,0.20,168.16,224.55
4:02:30,0.21,0.20,180.81,174.26
4:02:31,0.21,0.20,148.79,179.89
4:02:32,0.21,0.20,207.06,180.53
4:02:33,0.21,0.20,191.38,211.25
4:02:34,0.21,0.20,169.91,177.39
4:02:35,0.21,0.20,209.35,200.74
4:02:36,0.21,0.20,199.70,180.31
4:02:37,0.21,0.20,141.03,163.95
4:02:38,0.21,0.20,224.14,145.86
4:02:39,0.21,0.20,177.06,168.47
4:02:40,0.21,0.20,242.38,187.34
4:02:41,0.21,0.20,158.85,164.11
4:02:42,0.21,0.20,198.38,134.33
4:02:43,0.21,0.20,203.90,139.84
4:02:44,0.21,0.20,233.59,179.20
4:02:45,0.21,0.20,191.94,194.03
4:02:46,0.21,0.20,164.32,203.23
4:02:47,0.21,0.20,169.94,184.54
4:02:48,0.21,0.20,185.95,182.57
4:02:49,0.21,0.20,216.21,167.88
4:02:50,0.21,0.20,169.11,212.43
4:02:51,0.21,0.20,183.47,150.41
4:02:52,0.21,0.20,213.53,193.84
4:02:53,0.21,0.20,213.89,172.10
4:02:54,0.21,0.20,199.66,203.20
4:02:55,0.21,0.20,199.30,151.73
4:02:56,0.21,0.20,176.07,185.06
4:02:57,0.21,0.20,192.24,171.69
4:02:58,0.21,0.20,201.06,186.27
4:02:59,0.21,0.20,203.84,147.08
4:03:00,0.21,0.20,191.20,185.81
4:03:01,0.21,0.20,176.50,178.32
4:03:02,0.21,0.20,234.46,174.54
4:03:03,0.21,0.20,198.06,196.18
4:03:04,0.21,0.20,210.68,182.36
4:03:05,0.21,0.20,157.69,172.72
4:03:06,0.21,0.20,168.63,203.70
4:03:07,0.21,0.20,189.76,188.80
4:03:08,0.21,0.20,197.69,201.37
4:03:09,0.21,0.20,178.88,200.66
4:03:10,0.21,0.20,187.29,202.33
4:03:11,0.21,0.20,181.26,165.64
4:03:12,0.21,0.20,211.86,213.13
4:03:13,0.21,0.20,149.44,185.86
4:03:14,0.21,0.20,185.30,164.74
4:03:15,0.21,0.20,158.56,169.17
4:03:16,0.21,0.20,182.28,164.01
4:03:17,0.21,0.20,178.47,164.77
4:03:18,0.21,0.20,243.78,187.30
4:03:19,0.21,0.20,161.72,167.02
4:03:20,0.21,0.20,241.73,208.17
4:03:21,0.21,0.20,156.61,163.32
4:03:22,0.21,0.20,216.90,193.18
4:03:23,0.21,0.20,226.79,149.14
4:03:24,0.21,0.20,173.91,183.38
4:03:25,0.21,0.20,215.60,143.25
4:03:26,0.21,0.20,212.16,181.55
4:03:27,0.21,0.20,197.83,224.04
4:03:28,0.21,0.20,191.97,173.53
4:03:29,0.21,0.20,172.84,175.95
4:03:30,0.21,0.20,166.53,165.54
4:03:31,0.21,0.20,155.85,172.68
4:03:32,0.21,0.20,174.49,193.81
4:03:33,0.21,0.20,209.79,158.31
4:03:34,0.21,0.20,149.07,166.01
4:03:35,0.21,0.20,198.87,154.93
4:03:36,0.21,0.20,211.57,108.42
4:03:37,0.21,0.20,144.17,164.04
4:03:38,0.21,0.20,166.85,198.12
4:03:39,0.21,0.20,185.33,150.80
4:03:40,0.21,0.20,191.75,153.28
4:03:41,0.21,0.20,187.55,174.25
4:03:42,0.21,0.20,161.61,157.58
4:03:43,0.21,0.20,178.76,169.30
4:03:44,0.21,0.20,191.45,179.96
4:03:45,0.21,0.20,157.74,155.98
4:03:46,0.21,0.20,188.37,154.69
4:03:47,0.21,0.20,181.02,224.59
4:03:48,0.21,0.20,166.35,139.43
4:03:49,0.21,0.20,214.71,159.42
4:03:50,0.21,0.20,181.77,189.98
4:03:51,0.21,0.20,222.49,186.38
4:03:52,0.21,0.20,172.98,138.74
4:03:53,0.21,0.20,205.80,192.85
4:03:54,0.21,0.20,160.16,186.71
4:03:55,0.21,0.20,176.63,146.59
4:03:56,0.21,0.20,217.31,165.71
4:03:57,0.21,0.20,174.13,151.05
4:03:58,0.21,0.20,210.67,177.25
4:03:59,0.21,0.20,229.58,171.69
4:04:00,0.21,0.20,183.20,136.23
4:04:01,0.21,0.20,215.40,152.29
4:04:02,0.21,0.20,211.62,173.05
4:04:03,0.21,0.20,218.07,170.59
4:04:04,0.21,0.20,171.99,194.91
4:04:05,0.21,0.20,127.07,195.12
4:04:06,0.21,0.20,189.09,149.61
4:04:07,0.21,0.20,198.48,187.96
4:04:08,0.21,0.20,186.07,194.10
4:04:09,0.21,0.20,215.65,165.65
4:04:10,0.21,0.20,182.68,125.76
4:04:11,0.21,0.20,167.60,137.28
4:04:12,0.21,0.20,185.82,178.17
4:04:13,0.21,0.20,237.93,169.90
4:04:14,0.21,0.20,177.06,183.91
4:04:15,0.21,0.20,183.27,183.85
4:04:16,0.21,0.20,200.74,142.03
4:04:17,0.21,0.20,198.05,175.66
4:04:18,0.21,0.20,173.02,147.53
4:04:19,0.21,0.20,172.26,196.83
4:04:20,0.21,0.20,221.73,176.09
4:04:21,0.21,0.20,226.09,155.06
4:04:22,0.21,0.20,187.07,223.93
4:04:23,0.21,0.20,162.89,197.03
4:04:24,0.21,0.20,204.41,179.01
4:04:25,0.21,0.20,162.89,165.49
4:04:26,0.21,0.20,233.56,179.13
4:04:27,0.21,0.20,155.04,190.71
4:04:28,0.21,0.20,191.64,183.04
4:04:29,0.21,0.20,190.68,162.55
4:04:30,0.21,0.20,144.39,188.82
4:04:31,0.21,0.20,154.17,172.49
4:04:32,0.21,0.20,160.24,113.18
4:04:33,0.21,0.20,173.77,173.97
4:04:34,0.21,0.20,197.20,190.13
4:04:35,0.21,0.20,209.33,167.73
4:04:36,0.21,0.20,217.41,157.73
4:04:37,0.21,0.20,153.74,191.53
4:04:38,0.21,0.20,172.01,159.36
4:04:39,0.21,0.20,189.73,176.24
4:04:40,0.21,0.20,208.57,162.09
4:04:41,0.21,0.20,170.28,188.37
4:04:42,0.21,0.20,195.49,164.23
4:04:43,0.21,0.20,188.18,178.12
4:04:44,0.21,0.20,170.85,164.21
4:04:45,0.21,0.20,180.34,175.81
4:04:46,0.21,0.20,213.42,182.60
4:04:47,0.21,0.20,213.24,169.43
4:04:48,0.21,0.20,202.31,164.74
4:04:49,0.21,0.20,213.56,190.43
4:04:50,0.21,0.20,172.78,214.07
4:04:51,0.21,0.00,196.85,0.00
4:04:52,0.21,0.00,177.99,0.00
4:04:53,0.21,0.00,171.62,0.00
4:04:54,0.21,0.00,173.08,0.00
4:04:55,0.21,0.00,154.34,0.00
4:04:56,0.21,0.00,142.34,0.00
4:04:57,0.21,0.00,186.83,0.00
4:04:58,0.21,0.00,243.36,0.00
4:04:59,0.21,0.00,160.64,0.00
4:05:00,0.21,0.00,200.02,0.00
4:05:01,0.21,0.00,175.31,0.00
4:05:02,0.21,0.00,198.99,0.00
4:05:03,0.21,0.00,216.61,0.00
4:05:04,0.21,0.00,166.86,0.00
4:05:05,0.21,0.00,174.23,0.00
4:05:06,0.21,0.00,229.39,0.00
4:05:07,0.21,0.00,171.20,0.00
4:05:08,0.21,0.00,160.88,0.00
4:05:09,0.21,0.00,182.82,0.00
4:05:10,0.21,0.00,191.16,0.00
4:05:11,0.21,0.00,165.66,0.00
4:05:12,0.21,0.00,207.30,0.00
4:05:13,0.21,0.00,167.62,0.00
4:05:14,0.21,0.00,170.52,0.00
4:05:15,0.21,0.00,193.76,0.00
4:05:16,0.21,0.00,218.81,0.00
4:05:17,0.21,0.00,198.33,0.00
4:05:18,0.21,0.00,206.50,0.00
4:05:19,0.21,0.00,149.94,0.00
4:05:20,0.21,0.00,168.23,0.00
4:05:21,0.21,0.00,167.23,0.00
4:05:22,0.21,0.00,184.68,0.00
4:05:23,0.21,0.00,190.37,0.00
4:05:24,0.21,0.00,208.63,0.00
4:05:25,0.21,0.26,207.12,183.11
4:05:26,0.21,0.27,175.92,193.10
4:05:27,0.21,0.27,197.49,211.26
4:05:28,0.21,0.27,191.39,161.05
4:05:29,0.21,0.00,181.71,0.00
4:05:30,0.21,0.27,151.85,168.53
4:05:31,0.21,0.27,187.84,150.40
4:05:32,0.21,0.28,164.42,166.14
4:05:33,0.21,0.28,224.84,204.16
4:05:34,0.21,0.28,168.72,191.31
4:05:35,0.21,0.00,179.46,0.00
4:05:36,0.21,0.00,179.88,0.00
4:05:37,0.21,0.28,160.17,171.03
4:05:38,0.21,0.28,198.98,172.01
4:05:39,0.21,0.28,194.90,208.60
4:05:40,0.21,0.00,138.32,0.00
4:05:41,0.21,0.00,179.44,0.00
4:05:42,0.21,0.00,201.98,0.00